Rotterdam, Netherlands

12:18 PM CEST on May 24, 2017 (GMT +0200)
Rotterdam

Weather History for EHRD - May, 2012

Change the Weather History Date:

Saturday, May 12, 2012

  Actual Average Record
Temperature  
Mean Temperature 48 °F -  
Max Temperature 54 °F 64 °F 86 °F (1998)
Min Temperature 41 °F 48 °F 35 °F (2005)
Degree Days  
Heating Degree Days 18    
Moisture  
Dew Point 40 °F    
Average Humidity 75    
Maximum Humidity 93    
Minimum Humidity 51    
Precipitation  
Precipitation 0.01 in - - ()
Sea Level Pressure  
Sea Level Pressure 30.54 in    
Wind  
Wind Speed 6 mph ()    
Max Wind Speed 13 mph    
Max Gust Speed -    
Visibility 6.9 miles    
Events Rain    
Averages and records for this station are not official NWS values.
T = Trace of Precipitation, MM = Missing Value Source: Averaged Metar Reports

Daily Weather History Graph

Daily Weather History Graph

Search for Another Location

Airport or City:

Trip Planner

Search our weather history database for the weather conditions in past years. The results will help you decide how hot, cold, wet, or windy it might be!

Date:

Astronomy

May. 12, 2012 Rise Set
Actual Time 5:52 AM CEST 9:25 PM CEST
Civil Twilight 5:11 AM CEST 10:07 PM CEST
Nautical Twilight 4:15 AM CEST 11:03 PM CEST
Astronomical Twilight 2:53 AM CEST 12:28 AM CEST
Moon 2:18 AM CEST (5/12) 12:29 PM CEST (5/12)
Length of Visible Light 16h 55m
Length of Day
15h 32m
Waning Gibbous, 55% of the Moon is Illuminated
May 12
Waning Gibbous
May 12
Last Quarter
May 21
New
May 28
First Quarter
Jun 4
Full

Hourly Weather History & Observations

Time (CEST) Temp. Windchill Dew Point Humidity Pressure Visibility Wind Dir Wind Speed Gust Speed Precip Events Conditions
12:25 AM 46.4 °F 43.5 °F 42.8 °F 87% 30.39 in 6.2 mi NNW 5.8 mph - N/A   Mostly Cloudy
12:55 AM 44.6 °F 41.4 °F 41.0 °F 87% 30.39 in 6.2 mi NNW 5.8 mph - N/A   Unknown
1:25 AM 42.8 °F 40.1 °F 41.0 °F 93% 30.39 in 6.2 mi NW 4.6 mph - N/A   Partly Cloudy
1:55 AM 42.8 °F - 41.0 °F 93% 30.39 in 6.2 mi Variable 2.3 mph - N/A   Unknown
2:00 AM 43 °F - 41 °F 91% 30.41 in 16 mi WNW 2.2 mph - -   Scattered Clouds
2:25 AM 42.8 °F 41.1 °F 41.0 °F 93% 30.39 in 6.2 mi NW 3.5 mph - N/A   Partly Cloudy
2:55 AM 44.6 °F 40.7 °F 41.0 °F 87% 30.42 in 6.2 mi NW 6.9 mph - N/A   Mostly Cloudy
3:25 AM 46.4 °F 42.9 °F 42.8 °F 87% 30.42 in 6.2 mi NW 6.9 mph - N/A   Overcast
3:55 AM 46.4 °F 42.9 °F 41.0 °F 81% 30.42 in 6.2 mi NNW 6.9 mph - N/A   Overcast
4:25 AM 44.6 °F 40.7 °F 41.0 °F 87% 30.42 in 6.2 mi NW 6.9 mph - N/A   Mostly Cloudy
4:55 AM 44.6 °F 42.2 °F 41.0 °F 87% 30.45 in 6.2 mi NW 4.6 mph - N/A   Mostly Cloudy
5:00 AM 44 °F - 40 °F 80% 30.45 in 25 mi NW 4.5 mph - -   Mostly Cloudy
5:25 AM 42.8 °F 40.1 °F 39.2 °F 87% 30.45 in 6.2 mi NW 4.6 mph - N/A   Unknown
5:55 AM 41.0 °F 38.0 °F 39.2 °F 93% 30.45 in 6.2 mi WNW 4.6 mph - N/A   Unknown
6:25 AM 41.0 °F 39.0 °F 39.2 °F 93% 30.45 in 6.2 mi NW 3.5 mph - N/A   Unknown
6:55 AM 42.8 °F 41.1 °F 41.0 °F 93% 30.48 in 6.2 mi WNW 3.5 mph - N/A   Unknown
7:25 AM 46.4 °F 45.2 °F 42.8 °F 87% 30.48 in 6.2 mi WNW 3.5 mph - N/A   Unknown
7:55 AM 50.0 °F - 44.6 °F 82% 30.48 in 6.2 mi NW 4.6 mph - N/A   Unknown
8:00 AM 48 °F - 43 °F 76% 30.51 in 19 mi NNW 6.7 mph - -   Partly Cloudy
8:25 AM 48.2 °F - 42.8 °F 82% 30.51 in 6.2 mi NNW 8.1 mph - N/A   Overcast
8:55 AM 46.4 °F 43.5 °F 42.8 °F 87% 30.51 in 6.2 mi North 5.8 mph - N/A Rain Light Rain
9:25 AM 50.0 °F - 42.8 °F 76% 30.54 in 6.2 mi NNW 3.5 mph - N/A   Overcast
9:55 AM 50.0 °F - 41.0 °F 71% 30.54 in 6.2 mi NW 5.8 mph - N/A   Mostly Cloudy
10:25 AM 50.0 °F - 41.0 °F 71% 30.54 in 6.2 mi NNW 8.1 mph - N/A   Mostly Cloudy
10:55 AM 51.8 °F - 39.2 °F 62% 30.54 in 6.2 mi NW 10.4 mph - N/A   Scattered Clouds
11:00 AM 53 °F - 40 °F 51% 30.56 in 18 mi North 8.9 mph - -   Scattered Clouds
11:25 AM 53.6 °F - 39.2 °F 58% 30.54 in 6.2 mi NNW 9.2 mph - N/A   Mostly Cloudy
11:55 AM 53.6 °F - 41.0 °F 62% 30.57 in 6.2 mi NNW 10.4 mph - N/A   Partly Cloudy
12:25 PM 51.8 °F - 41.0 °F 67% 30.57 in 6.2 mi NNW 12.7 mph - N/A   Mostly Cloudy
12:55 PM 53.6 °F - 39.2 °F 58% 30.57 in 6.2 mi NNW 10.4 mph - N/A   Scattered Clouds
1:25 PM 53.6 °F - 41.0 °F 62% 30.60 in 6.2 mi NNW 12.7 mph - N/A   Mostly Cloudy
1:55 PM 50.0 °F - 41.0 °F 71% 30.60 in 6.2 mi North 11.5 mph - N/A   Mostly Cloudy
2:00 PM 51 °F - 42 °F 61% 30.61 in 22 mi NNW 13.4 mph - -   Partly Cloudy
2:25 PM 51.8 °F - 39.2 °F 62% 30.60 in 6.2 mi NNW 12.7 mph - N/A   Mostly Cloudy
2:55 PM 51.8 °F - 41.0 °F 67% 30.60 in 6.2 mi NNW 11.5 mph - N/A   Mostly Cloudy
3:25 PM 53.6 °F - 41.0 °F 62% 30.60 in 6.2 mi NNW 11.5 mph - N/A   Partly Cloudy
3:55 PM 51.8 °F - 39.2 °F 62% 30.60 in 6.2 mi NNW 12.7 mph - N/A   Partly Cloudy
4:25 PM 51.8 °F - 39.2 °F 62% 30.60 in 6.2 mi NNW 11.5 mph - N/A   Scattered Clouds
4:55 PM 51.8 °F - 39.2 °F 62% 30.60 in 6.2 mi NNW 12.7 mph - N/A   Scattered Clouds
5:00 PM 50 °F - 38 °F 54% 30.63 in 22 mi NNW 11.2 mph - -   Scattered Clouds
5:25 PM 50.0 °F - 39.2 °F 66% 30.60 in 6.2 mi NNW 12.7 mph - N/A   Mostly Cloudy
5:55 PM 50.0 °F - 39.2 °F 66% 30.60 in 6.2 mi NNW 9.2 mph - N/A   Mostly Cloudy
6:25 PM 50.0 °F - 39.2 °F 66% 30.63 in 6.2 mi NNW 9.2 mph - N/A   Partly Cloudy
6:55 PM 50.0 °F - 41.0 °F 71% 30.63 in 6.2 mi NNW 9.2 mph - N/A   Mostly Cloudy
7:25 PM 50.0 °F - 37.4 °F 62% 30.60 in 6.2 mi NNW 8.1 mph - N/A   Unknown
7:55 PM 48.2 °F - 37.4 °F 66% 30.63 in 6.2 mi NNW 9.2 mph - N/A   Unknown
8:00 PM 48 °F - 38 °F 58% 30.63 in 25 mi North 8.9 mph - -   Partly Cloudy
8:25 PM 48.2 °F - 37.4 °F 66% 30.63 in 6.2 mi North 8.1 mph - N/A   Mostly Cloudy
8:55 PM 48.2 °F - 37.4 °F 66% 30.63 in 6.2 mi North 8.1 mph - N/A   Overcast
9:25 PM 44.6 °F 40.7 °F 37.4 °F 76% 30.63 in 6.2 mi NNW 6.9 mph - N/A   Unknown
9:55 PM 42.8 °F 40.1 °F 37.4 °F 81% 30.63 in 6.2 mi NNW 4.6 mph - N/A   Unknown
10:25 PM 41.0 °F 39.0 °F 37.4 °F 87% 30.63 in 6.2 mi NNW 3.5 mph - N/A   Unknown
10:55 PM 42.8 °F - 37.4 °F 81% 30.63 in 6.2 mi Variable 2.3 mph - N/A   Overcast
11:00 PM 42 °F - 38 °F 80% 30.63 in 25 mi NW 2.2 mph - -   Unknown Precipitation
11:25 PM 41.0 °F - 37.4 °F 87% 30.60 in 6.2 mi Variable 1.2 mph - N/A   Unknown
11:55 PM 41.0 °F - 37.4 °F 87% 30.60 in 6.2 mi Variable 2.3 mph - N/A   Unknown